Regional Weather Roundup
Issued by NWS

Home | Current Version | Previous Version | Graphics & Text | Print | Product List | Glossary On
Versions: 1 2 3 4 5 6 7 8 9 10 11 12 13 14 15 16 17 18 19 20 21 22 23 24 25 26 27 28 29 30 31 32 33 34 35 36 37 38 39 40 41 42 43 44 45 46 47 48 49 50
995
ASUS43 KMKX 030721
RWRWI

WISCONSIN REGIONAL WEATHER ROUNDUP
NATIONAL WEATHER SERVICE MILWAUKEE/SULLIVAN WI
200 AM CDT TUE MAY 03 2016

NOTE: "FAIR" INDICATES FEW OR NO CLOUDS BELOW 12,000 FEET WITH NO
SIGNIFICANT WEATHER AND/OR OBSTRUCTIONS TO VISIBILITY.

WIZ001-002-006>008-014>016-023>028-030800-
NORTHWEST WISCONSIN

CITY           SKY/WX    TMP DP  RH WIND       PRES   REMARKS
SUPERIOR ARPT  CLEAR     34  32  93 SW7       29.91F WCI  28
ASHLAND        CLEAR     41  34  76 SW7       29.91F
HAYWARD        CLEAR     37  31  78 CALM      29.95S
SIREN          CLEAR     49  32  51 SW5       29.95F
CUMBERLAND     CLEAR     41  34  75 W3        29.96S
RICE LAKE      CLEAR     42  38  86 CALM      29.97F
CHETEK         CLEAR     40  36  87 CALM      29.96S
LADYSMITH      CLEAR     40  36  84 CALM      29.97S
EAU CLAIRE     CLEAR     43  38  82 SW5       29.96F
MENOMONIE      CLEAR     40  32  72 CALM      29.97S
NEW RICHMOND   CLEAR     45  37  75 CALM      29.97F
OSCEOLA        CLEAR     42  37  80 CALM      29.99F
$$

WIZ003>005-009-010-017-018-030800-
NORTH CENTRAL WISCONSIN

CITY           SKY/WX    TMP DP  RH WIND       PRES   REMARKS
MANITOWISH WTR CLEAR     33  33 100 CALM      29.92F
ARBOR VITAE    CLEAR     37  32  84 CALM      29.92F
WOODRUFF       CLEAR     37  32  84 CALM      29.92F
RHINELANDER    CLEAR     36  32  85 W5        29.93F WCI  32
EAGLE RIVER    CLEAR     33  32  96 CALM      29.91F
LAND O LAKES   CLEAR     32  31  98 CALM      29.92F
PHILLIPS       CLEAR     37  34  91 CALM      29.93F
TOMAHAWK       CLEAR     32  30  92 CALM      29.94F
MEDFORD        CLEAR     46  34  64 W3        29.94F
MERRILL        CLEAR     36  34  93 CALM      29.95F
$$

WIZ029-030-035-036-043>047-030800-
CENTRAL WISCONSIN

CITY           SKY/WX    TMP DP  RH WIND       PRES   REMARKS
WAUSAU         CLEAR     47  35  63 CALM      29.93F
MOSINEE        CLEAR     46  34  61 W6        29.96S
MARSHFIELD     CLEAR     48  34  58 W6        29.95F
STEVENS POINT  CLEAR     36  32  85 CALM      29.96S
WAUPACA        CLEAR     44  35  72 CALM      29.96F
WAUTOMA        CLEAR     37  33  85 CALM      29.97F
WISC RAPIDS    CLEAR     39  34  82 CALM      29.97F
CAMP DOUGLAS     N/A     37  37 100 CALM      29.96F
$$

WIZ011>013-019>022-031-037>040-048>050-030800-
NORTHEAST WISCONSIN

CITY           SKY/WX    TMP DP  RH WIND       PRES   REMARKS
ANTIGO         CLEAR     39  33  80 CALM      29.94F
SHAWANO        CLEAR     49  37  63 SW3       29.94F
OCONTO         CLEAR     36  36 100 CALM      29.93F
STURGEON BAY   CLEAR     46  30  53 S6        29.96S
GREEN BAY      CLEAR     45  37  73 S3        29.95F
MANITOWOC      CLEAR     41  35  79 MISG      29.97F
APPLETON       PTCLDY    45  34  65 SW7       29.94F
CLINTONVILLE   CLEAR     45  34  65 SW3       29.94F
OSHKOSH        CLEAR     46  35  65 S7        29.96F
$$

WIZ032>034-041-042-053>061-030800-
SOUTHWEST WISCONSIN

CITY           SKY/WX    TMP DP  RH WIND       PRES   REMARKS
LA CROSSE      CLEAR     48  40  73 SE6       29.98F
SPARTA         CLEAR     37  35  92 CALM      29.99S
VIROQUA        CLEAR     48  36  63 W7        29.99S
BOSCOBEL       CLEAR     42  40  92 SW5       30.00F
PRAIRIE DU CHI CLEAR     42  38  86 N3        30.00F
PLATTEVILLE    CLEAR     46  39  76 W5        30.00S
$$

WIZ056-057-062-063-064-067-068-030800-
SOUTH CENTRAL WISCONSIN

CITY           SKY/WX    TMP DP  RH WIND       PRES   REMARKS
REEDSBURG      CLEAR     41  39  93 CALM      29.98S
BARABOO/DELLS  CLEAR     42  35  76 S3        29.97F
LONE ROCK      CLEAR     41  39  93 CALM      29.99F
MINERAL POINT  CLEAR     46  36  66 W3        29.99F
MADISON        CLEAR     45  36  70 CALM      29.98F
MIDDLETON      CLEAR     41  38  90 CALM      29.99S
WATERTOWN      CLEAR     37  36  93 CALM      29.98F
MONROE         CLEAR     45  36  70 S7        29.99S
JANESVILLE     CLEAR     41  37  87 CALM      29.99F
$$

WIZ051-052-058>065-066-070>072-030800-
SOUTHEAST WISCONSIN

CITY           SKY/WX    TMP DP  RH WIND       PRES   REMARKS
MILWAUKEE      CLEAR     42  33  70 CALM      29.98F
WAUKESHA       PTCLDY    36  32  87 CALM      30.00S
MILWAUKEE/TIMM PTCLDY    39  32  75 CALM      29.99F
RACINE         CLEAR     40  33  76 W7        30.00F
BURLINGTON     CLEAR     34  34  98 CALM      29.99S
KENOSHA        CLEAR     37  33  85 W5        29.99S WCI  33
FOND DU LAC    CLEAR     44  35  70 S5        29.97F
SHEBOYGAN      CLEAR     39  34  82 SW5       29.97F
WEST BEND      CLEAR     37  34  87 CALM      29.98F
JUNEAU         CLEAR     43  33  68 S6        29.99F
$$

LSZ147-162-030800-
LAKE SUPERIOR

STATION/POSITION TIME  TEMP    WIND        PRES    WAVE
                       AIR SEA DIR/SP/G            HT/PER
                 (UTC) (F)     (DEG/KT/KT) (MB)    (FT/S)
W MID LAKE BUOY  0650   39 37  270/  4/  6 1012.4F   0
DEVILS ISLAND    0700   41     230/ 11/ 13 1012.5F
SAXON HARBOR     0600   38     190/  1/  2 1012.5
$$

LMZ867-665-643>646-030800-
LAKE MICHIGAN

STATION/POSITION TIME  TEMP    WIND        PRES    WAVE
                       AIR SEA DIR/SP/G            HT/PER
                 (UTC) (F)     (DEG/KT/KT) (MB)    (FT/S)
CHAMBERS ISLAND  0600   46     170/  3/  5 1014.2F
N MID LAKE BUOY  0650   41 38  200/  2/  2 1013.9F
NORTHPORT PIER   0600   45     210/  1/ 12 1014.2F
ALGOMA LAKESHORE 0600             CALM       N/A
KEWAUNEE LAKESHO 0700   42      CALM  /  2 1013.5F
SHEBOYGAN LAKESH 0700   47     250/  8/  9 1015.4F
PORT WASHINGTON  0640   47     280/  5/  7 1015.9F
S MID LAKE BUOY  0650   42 41  280/  2/  4 1015.3F   1
KENOSHA   LAKESH 0700   46     270/  9/ 10 1015.2F
$$

TC  - TEMPERATURE IN CELSIUS
VSB - VISIBILITY IN STATUTE MILES
WCI - WIND CHILL INDEX
HX  - HEAT INDEX





USA.gov is the U.S. government's official web portal to all federal, state and local government web resources and services.